Location: Arbon
(43.0005°N, 0.7472°E)
Time: 21:43:17
(UTC+00:00)

Altair - Pass Details

Date: 02 December 2020
Orbit: 1501 x 1682 km, 47.2° (Epoch: 26 January)

Event Time Altitude Azimuth Distance (km) Brightness Sun altitude
Rises 20:59:18 0° 258° (WSW) 4,726 10.6 -49.6°
Reaches altitude 10° 21:02:25 10° 260° (W) 3,722 9.9 -50.1°
Enters shadow 21:06:31 30° 266° (W) 2,470 8.7 -50.8°
Maximum altitude 21:11:47 75° 346° (NNW) 1,560 - -51.7°
Drops below altitude 10° 21:20:59 10° 72° (ENE) 3,655 - -53.3°
Sets 21:24:01 0° 75° (ENE) 4,637 - -53.8°
